| time (UTC) | temp C | wind direction | speed KPH | gust KPH | rain 1hr cm | rain 24hr cm | rain mn cm | humidity % | barometer mb |
| 20260504190028 | 26 | 271 | 3.2 | 11.3 | 0.00 | 0.00 | 0.00 | 44 | 1009.9 |
| 20260504185509 | 25 | 236 | 4.8 | 11.3 | 0.00 | 0.00 | 0.00 | 45 | 1009.9 |
| 20260504185013 | 25 | 249 | 1.6 | 6.4 | 0.00 | 0.00 | 0.00 | 44 | 1009.9 |
| 20260504184540 | 25 | 300 | 0.0 | 6.4 | 0.00 | 0.00 | 0.00 | 40 | 1009.9 |
| 20260504184015 | 26 | 221 | 1.6 | 6.4 | 0.00 | 0.00 | 0.00 | 43 | 1009.9 |
| 20260504183029 | 25 | 262 | 1.6 | 4.8 | 0.00 | 0.00 | 0.00 | 41 | 1010.0 |
| 20260504182517 | 25 | 94 | 1.6 | 6.4 | 0.00 | 0.00 | 0.00 | 41 | 1010.0 |
| 20260504182010 | 25 | 0 | 3.2 | 8.0 | 0.00 | 0.00 | 0.00 | 42 | 1009.9 |
| 20260504181533 | 25 | 0 | 1.6 | 8.0 | 0.00 | 0.00 | 0.00 | 43 | 1009.9 |
| 20260504181010 | 25 | 233 | 1.6 | 6.4 | 0.00 | 0.00 | 0.00 | 47 | 1009.8 |
| 20260504180512 | 24 | 192 | 3.2 | 6.4 | 0.00 | 0.00 | 0.00 | 48 | 1009.9 |
| 20260504180033 | 24 | 279 | 0.0 | 4.8 | 0.00 | 0.00 | 0.00 | 46 | 1010.0 |
| 20260504175510 | 24 | 5 | 1.6 | 4.8 | 0.00 | 0.00 | 0.00 | 47 | 1010.1 |
| 20260504175019 | 23 | 213 | 1.6 | 4.8 | 0.00 | 0.00 | 0.00 | 52 | 1010.0 |
| 20260504174530 | 23 | 5 | 0.0 | 6.4 | 0.00 | 0.00 | 0.00 | 46 | 1010.0 |
| 20260504174010 | 23 | 284 | 0.0 | 6.4 | 0.00 | 0.00 | 0.00 | 48 | 1010.0 |
| 20260504173512 | 23 | 0 | 0.0 | 4.8 | 0.00 | 0.00 | 0.00 | 48 | 1010.0 |
| 20260504173028 | 23 | 127 | 1.6 | 6.4 | 0.00 | 0.00 | 0.00 | 48 | 1010.0 |
| 20260504172512 | 22 | 360 | 1.6 | 6.4 | 0.00 | 0.00 | 0.00 | 48 | 1010.1 |
| 20260504172012 | 22 | 292 | 0.0 | 8.0 | 0.00 | 0.00 | 0.00 | 51 | 1010.0 |
| 20260504171526 | 22 | 344 | 3.2 | 8.0 | 0.00 | 0.00 | 0.00 | 50 | 1010.1 |
| 20260504171011 | 22 | 327 | 3.2 | 6.4 | 0.00 | 0.00 | 0.00 | 49 | 1010.1 |
| 20260504170513 | 22 | 319 | 1.6 | 4.8 | 0.00 | 0.00 | 0.00 | 52 | 1010.1 |
| 20260504151014 | 17 | 59 | 0.0 | 4.8 | 0.00 | 0.00 | 0.00 | 65 | 1010.4 |
| 20260504150516 | 17 | 59 | 1.6 | 4.8 | 0.00 | 0.00 | 0.00 | 68 | 1010.3 |
| 20260504141013 | 11 | 317 | 0.0 | 4.8 | 0.00 | 0.00 | 0.00 | 88 | 1009.9 |
| 20260504140509 | 11 | 317 | 0.0 | 4.8 | 0.00 | 0.00 | 0.00 | 89 | 1009.9 |
| 20260504130510 | 9 | 0 | 0.0 | 0.0 | 0.00 | 0.00 | 0.00 | 90 | 1009.5 |
| 20260504110512 | 10 | 0 | 0.0 | 3.2 | 0.00 | 0.00 | 0.00 | 88 | 1009.5 |
| 20260504100510 | 11 | 348 | 0.0 | 3.2 | 0.00 | 0.00 | 0.00 | 87 | 1009.4 |
| 20260504081528 | 12 | 136 | 1.6 | 3.2 | 0.00 | 0.00 | 0.00 | 84 | 1009.3 |
| 20260504081016 | 12 | 0 | 0.0 | 3.2 | 0.00 | 0.00 | 0.00 | 84 | 1009.3 |
| 20260504080513 | 12 | 0 | 0.0 | 3.2 | 0.00 | 0.00 | 0.00 | 83 | 1009.3 |
| 20260504050510 | 17 | 229 | 3.2 | 6.4 | 0.00 | 0.00 | 0.00 | 68 | 1009.3 |
| 20260504045512 | 17 | 215 | 3.2 | 8.0 | 0.00 | 0.00 | 0.00 | 67 | 1009.3 |
| 20260504045010 | 17 | 196 | 3.2 | 8.0 | 0.00 | 0.00 | 0.00 | 67 | 1009.3 |
| 20260504044534 | 17 | 198 | 3.2 | 6.4 | 0.00 | 0.00 | 0.00 | 66 | 1009.2 |
| 20260504044014 | 18 | 0 | 1.6 | 6.4 | 0.00 | 0.00 | 0.00 | 65 | 1009.3 |
| 20260504043513 | 18 | 222 | 1.6 | 6.4 | 0.00 | 0.00 | 0.00 | 65 | 1009.2 |
| 20260504043036 | 18 | 192 | 1.6 | 4.8 | 0.00 | 0.00 | 0.00 | 65 | 1009.2 |
| 20260504042510 | 18 | 0 | 0.0 | 6.4 | 0.00 | 0.00 | 0.00 | 64 | 1009.2 |
| 20260504042009 | 18 | 190 | 1.6 | 8.0 | 0.00 | 0.00 | 0.00 | 64 | 1009.3 |
| 20260504041530 | 19 | 207 | 3.2 | 8.0 | 0.00 | 0.00 | 0.00 | 64 | 1009.2 |
| 20260504041011 | 19 | 202 | 1.6 | 6.4 | 0.00 | 0.00 | 0.00 | 64 | 1009.3 |
| 20260504040510 | 19 | 209 | 3.2 | 6.4 | 0.00 | 0.00 | 0.00 | 63 | 1009.1 |
| 20260504040030 | 20 | 213 | 3.2 | 6.4 | 0.00 | 0.00 | 0.00 | 63 | 1009.2 |
| 20260504035510 | 20 | 198 | 3.2 | 8.0 | 0.00 | 0.00 | 0.00 | 62 | 1009.2 |
| 20260504035010 | 20 | 219 | 3.2 | 8.0 | 0.00 | 0.00 | 0.00 | 61 | 1009.2 |
| 20260504034532 | 20 | 218 | 3.2 | 8.0 | 0.00 | 0.00 | 0.00 | 61 | 1009.1 |
| 20260504034013 | 20 | 0 | 1.6 | 6.4 | 0.00 | 0.00 | 0.00 | 61 | 1009.1 |
| 20260504033513 | 21 | 174 | 3.2 | 6.4 | 0.00 | 0.00 | 0.00 | 61 | 1009.1 |
| 20260504033033 | 21 | 175 | 1.6 | 6.4 | 0.00 | 0.00 | 0.00 | 60 | 1009.2 |
| 20260504032512 | 21 | 207 | 1.6 | 8.0 | 0.00 | 0.00 | 0.00 | 59 | 1009.1 |
| 20260504032012 | 21 | 186 | 3.2 | 8.0 | 0.00 | 0.00 | 0.00 | 58 | 1009.1 |
| 20260504031528 | 22 | 211 | 1.6 | 8.0 | 0.00 | 0.00 | 0.00 | 58 | 1009.2 |
| 20260504031010 | 22 | 206 | 4.8 | 8.0 | 0.00 | 0.00 | 0.00 | 57 | 1009.2 |
| 20260504030510 | 22 | 191 | 3.2 | 9.7 | 0.00 | 0.00 | 0.00 | 56 | 1009.2 |
| 20260504030032 | 22 | 213 | 4.8 | 9.7 | 0.00 | 0.00 | 0.00 | 53 | 1009.2 |
| 20260504025510 | 23 | 201 | 6.4 | 11.3 | 0.00 | 0.00 | 0.00 | 51 | 1009.2 |
| 20260504025011 | 23 | 173 | 6.4 | 11.3 | 0.00 | 0.00 | 0.00 | 49 | 1009.2 |
| 20260504024538 | 23 | 189 | 4.8 | 11.3 | 0.00 | 0.00 | 0.00 | 48 | 1009.2 |
| 20260504024009 | 23 | 229 | 4.8 | 11.3 | 0.00 | 0.00 | 0.00 | 47 | 1009.1 |
| 20260504023509 | 23 | 229 | 3.2 | 11.3 | 0.00 | 0.00 | 0.00 | 47 | 1009.2 |
| 20260504023031 | 23 | 209 | 6.4 | 12.9 | 0.00 | 0.00 | 0.00 | 47 | 1009.2 |
| 20260504022513 | 23 | 221 | 6.4 | 12.9 | 0.00 | 0.00 | 0.00 | 47 | 1009.2 |
| 20260504022010 | 23 | 198 | 6.4 | 14.5 | 0.00 | 0.00 | 0.00 | 46 | 1009.2 |
| 20260504021530 | 24 | 200 | 8.0 | 14.5 | 0.00 | 0.00 | 0.00 | 46 | 1009.3 |
| 20260504021012 | 24 | 199 | 6.4 | 12.9 | 0.00 | 0.00 | 0.00 | 45 | 1009.3 |
| 20260504020511 | 25 | 205 | 8.0 | 12.9 | 0.00 | 0.00 | 0.00 | 45 | 1009.3 |
| 20260504020033 | 25 | 208 | 4.8 | 12.9 | 0.00 | 0.00 | 0.00 | 45 | 1009.3 |
| 20260504015510 | 25 | 173 | 8.0 | 12.9 | 0.00 | 0.00 | 0.00 | 46 | 1009.4 |
| 20260504015051 | 25 | 188 | 4.8 | 12.9 | 0.00 | 0.00 | 0.00 | 44 | 1009.4 |
| 20260504014530 | 25 | 178 | 6.4 | 12.9 | 0.00 | 0.00 | 0.00 | 43 | 1009.5 |
| 20260504014013 | 26 | 185 | 9.7 | 12.9 | 0.00 | 0.00 | 0.00 | 43 | 1009.5 |
| 20260504013510 | 26 | 216 | 6.4 | 11.3 | 0.00 | 0.00 | 0.00 | 43 | 1009.5 |
| 20260504013037 | 26 | 223 | 3.2 | 9.7 | 0.00 | 0.00 | 0.00 | 42 | 1009.5 |
| 20260504012512 | 26 | 0 | 1.6 | 8.0 | 0.00 | 0.00 | 0.00 | 41 | 1009.5 |
| 20260504012018 | 26 | 248 | 1.6 | 6.4 | 0.00 | 0.00 | 0.00 | 40 | 1009.6 |
| 20260504011529 | 26 | 213 | 1.6 | 6.4 | 0.00 | 0.00 | 0.00 | 40 | 1009.7 |
| 20260504011013 | 26 | 243 | 1.6 | 6.4 | 0.00 | 0.00 | 0.00 | 40 | 1009.7 |
| 20260504010510 | 26 | 0 | 0.0 | 4.8 | 0.00 | 0.00 | 0.00 | 41 | 1009.7 |
| 20260504010030 | 26 | 250 | 1.6 | 6.4 | 0.00 | 0.00 | 0.00 | 40 | 1009.8 |
| 20260504005510 | 26 | 244 | 3.2 | 11.3 | 0.00 | 0.00 | 0.00 | 39 | 1009.9 |
| 20260504005011 | 26 | 227 | 4.8 | 11.3 | 0.00 | 0.00 | 0.00 | 38 | 1009.9 |
| 20260504004530 | 26 | 245 | 1.6 | 8.0 | 0.00 | 0.00 | 0.00 | 38 | 1010.0 |
| 20260504004011 | 26 | 223 | 0.0 | 8.0 | 0.00 | 0.00 | 0.00 | 38 | 1010.0 |
| 20260504003512 | 26 | 0 | 1.6 | 8.0 | 0.00 | 0.00 | 0.00 | 37 | 1010.1 |
| 20260504003039 | 27 | 245 | 1.6 | 8.0 | 0.00 | 0.00 | 0.00 | 37 | 1010.0 |
| 20260504002512 | 27 | 0 | 0.0 | 8.0 | 0.00 | 0.00 | 0.00 | 37 | 1010.2 |
| 20260504002011 | 27 | 223 | 3.2 | 8.0 | 0.00 | 0.00 | 0.00 | 40 | 1010.2 |
| 20260504001532 | 27 | 248 | 1.6 | 6.4 | 0.00 | 0.00 | 0.00 | 40 | 1010.4 |
| 20260504001013 | 27 | 247 | 1.6 | 11.3 | 0.00 | 0.00 | 0.00 | 41 | 1010.4 |
| 20260504000511 | 27 | 255 | 0.0 | 11.3 | 0.00 | 0.00 | 0.00 | 42 | 1010.5 |
| 20260504000032 | 27 | 205 | 3.2 | 9.7 | 0.00 | 0.00 | 0.00 | 42 | 1010.5 |
| 20260503235512 | 27 | 248 | 1.6 | 8.0 | 0.00 | 0.00 | 0.00 | 41 | 1010.6 |
| 20260503235012 | 26 | 0 | 3.2 | 8.0 | 0.00 | 0.00 | 0.00 | 40 | 1010.6 |
| 20260503234529 | 26 | 239 | 3.2 | 8.0 | 0.00 | 0.00 | 0.00 | 44 | 1010.6 |
| 20260503234010 | 26 | 237 | 3.2 | 8.0 | 0.00 | 0.00 | 0.00 | 43 | 1010.7 |
| 20260503233512 | 26 | 244 | 1.6 | 6.4 | 0.00 | 0.00 | 0.00 | 44 | 1010.7 |
| 20260503233038 | 26 | 252 | 3.2 | 6.4 | 0.00 | 0.00 | 0.00 | 45 | 1010.7 |
| 20260503232514 | 26 | 246 | 1.6 | 9.7 | 0.00 | 0.00 | 0.00 | 47 | 1010.8 |
| 20260503232015 | 26 | 245 | 4.8 | 9.7 | 0.00 | 0.00 | 0.00 | 46 | 1010.8 |
| 20260503231532 | 26 | 260 | 1.6 | 8.0 | 0.00 | 0.00 | 0.00 | 46 | 1010.8 |
| 20260503231011 | 26 | 251 | 3.2 | 8.0 | 0.00 | 0.00 | 0.00 | 46 | 1011.0 |
| 20260503230510 | 27 | 248 | 1.6 | 9.7 | 0.00 | 0.00 | 0.00 | 47 | 1011.0 |
| 20260503230029 | 26 | 230 | 4.8 | 9.7 | 0.00 | 0.00 | 0.00 | 46 | 1011.0 |
| 20260503225510 | 27 | 271 | 1.6 | 9.7 | 0.00 | 0.00 | 0.00 | 47 | 1011.0 |
| 20260503225016 | 27 | 250 | 3.2 | 9.7 | 0.00 | 0.00 | 0.00 | 46 | 1011.2 |
| 20260503224531 | 26 | 254 | 3.2 | 11.3 | 0.00 | 0.00 | 0.00 | 43 | 1011.3 |
| 20260503224012 | 26 | 288 | 3.2 | 11.3 | 0.00 | 0.00 | 0.00 | 42 | 1011.4 |
| 20260503223507 | 26 | 246 | 3.2 | 11.3 | 0.00 | 0.00 | 0.00 | 42 | 1011.4 |
| 20260503223027 | 26 | 257 | 3.2 | 11.3 | 0.00 | 0.00 | 0.00 | 41 | 1011.5 |
| 20260503222510 | 26 | 261 | 0.0 | 11.3 | 0.00 | 0.00 | 0.00 | 40 | 1011.5 |
| 20260503222010 | 27 | 244 | 3.2 | 11.3 | 0.00 | 0.00 | 0.00 | 38 | 1011.5 |
| 20260503221527 | 27 | 242 | 1.6 | 6.4 | 0.00 | 0.00 | 0.00 | 39 | 1011.6 |
| 20260503221012 | 26 | 0 | 1.6 | 6.4 | 0.00 | 0.00 | 0.00 | 42 | 1011.6 |
| 20260503220510 | 26 | 254 | 1.6 | 9.7 | 0.00 | 0.00 | 0.00 | 38 | 1011.7 |
| 20260503220032 | 26 | 225 | 0.0 | 9.7 | 0.00 | 0.00 | 0.00 | 39 | 1011.7 |
| 20260503215510 | 26 | 232 | 1.6 | 8.0 | 0.00 | 0.00 | 0.00 | 40 | 1011.7 |
| 20260503215013 | 26 | 250 | 3.2 | 8.0 | 0.00 | 0.00 | 0.00 | 41 | 1011.9 |
| 20260503214528 | 26 | 256 | 0.0 | 11.3 | 0.00 | 0.00 | 0.00 | 48 | 1011.9 |
| 20260503214008 | 26 | 212 | 4.8 | 11.3 | 0.00 | 0.00 | 0.00 | 46 | 1011.9 |
| 20260503213508 | 26 | 244 | 1.6 | 8.0 | 0.00 | 0.00 | 0.00 | 45 | 1012.0 |
| 20260503213032 | 26 | 0 | 0.0 | 3.2 | 0.00 | 0.00 | 0.00 | 46 | 1012.0 |
| 20260503212515 | 26 | 257 | 1.6 | 8.0 | 0.00 | 0.00 | 0.00 | 47 | 1012.0 |
| 20260503212011 | 26 | 0 | 1.6 | 8.0 | 0.00 | 0.00 | 0.00 | 49 | 1012.0 |
| 20260503211530 | 26 | 242 | 1.6 | 8.0 | 0.00 | 0.00 | 0.00 | 47 | 1012.1 |
| 20260503211007 | 26 | 308 | 1.6 | 6.4 | 0.00 | 0.00 | 0.00 | 46 | 1012.2 |
| 20260503210510 | 26 | 315 | 1.6 | 8.0 | 0.00 | 0.00 | 0.00 | 49 | 1012.3 |
| 20260503210027 | 26 | 245 | 3.2 | 8.0 | 0.00 | 0.00 | 0.00 | 48 | 1012.3 |
| 20260503205510 | 25 | 213 | 0.0 | 6.4 | 0.00 | 0.00 | 0.00 | 50 | 1012.3 |
| 20260503205011 | 26 | 256 | 1.6 | 11.3 | 0.00 | 0.00 | 0.00 | 48 | 1012.4 |
| 20260503204528 | 25 | 261 | 1.6 | 11.3 | 0.00 | 0.00 | 0.00 | 51 | 1012.4 |
| 20260503204012 | 25 | 261 | 3.2 | 12.9 | 0.00 | 0.00 | 0.00 | 51 | 1012.5 |
| 20260503203510 | 25 | 262 | 0.0 | 12.9 | 0.00 | 0.00 | 0.00 | 53 | 1012.6 |
| 20260503203036 | 25 | 244 | 3.2 | 8.0 | 0.00 | 0.00 | 0.00 | 52 | 1012.5 |
| 20260503202509 | 25 | 206 | 3.2 | 8.0 | 0.00 | 0.00 | 0.00 | 50 | 1012.7 |
| 20260503202010 | 25 | 0 | 3.2 | 12.9 | 0.00 | 0.00 | 0.00 | 53 | 1012.6 |
| 20260503201528 | 25 | 229 | 3.2 | 12.9 | 0.00 | 0.00 | 0.00 | 52 | 1012.6 |
| 20260503201014 | 25 | 231 | 4.8 | 11.3 | 0.00 | 0.00 | 0.00 | 53 | 1012.7 |
| 20260503200511 | 26 | 250 | 3.2 | 8.0 | 0.00 | 0.00 | 0.00 | 50 | 1012.8 |
| 20260503200027 | 26 | 327 | 3.2 | 8.0 | 0.00 | 0.00 | 0.00 | 45 | 1012.8 |
| 20260503195510 | 26 | 229 | 1.6 | 6.4 | 0.00 | 0.00 | 0.00 | 47 | 1013.1 |
| 20260503195010 | 26 | 254 | 1.6 | 8.0 | 0.00 | 0.00 | 0.00 | 46 | 1013.1 |
| 20260503194531 | 26 | 242 | 0.0 | 8.0 | 0.00 | 0.00 | 0.00 | 48 | 1013.2 |
| 20260503194010 | 25 | 5 | 4.8 | 8.0 | 0.00 | 0.00 | 0.00 | 45 | 1013.2 |
| 20260503193514 | 25 | 333 | 1.6 | 8.0 | 0.00 | 0.00 | 0.00 | 42 | 1013.3 |
| 20260503193030 | 25 | 266 | 1.6 | 8.0 | 0.00 | 0.00 | 0.00 | 40 | 1013.3 |
| 20260503192510 | 25 | 242 | 1.6 | 6.4 | 0.00 | 0.00 | 0.00 | 42 | 1013.3 |
| 20260503192008 | 25 | 292 | 1.6 | 3.2 | 0.00 | 0.00 | 0.00 | 45 | 1013.4 |
| 20260503191528 | 25 | 0 | 0.0 | 8.0 | 0.00 | 0.00 | 0.00 | 43 | 1013.4 |
| 20260503191010 | 25 | 350 | 3.2 | 14.5 | 0.00 | 0.00 | 0.00 | 37 | 1013.4 |
| 20260503190509 | 25 | 310 | 4.8 | 14.5 | 0.00 | 0.00 | 0.00 | 42 | 1013.5 |